Location: San Martino di Castrozza
(46.2667°N, 11.8000°E)
Time: 03:25:09
(UTC+00:00)

Cosmos 2242 Rocket - Pass Details

Date: 23 April 2021
Orbit: 619 x 651 km, 82.5° (Epoch: 14 May)

Event Time Altitude Azimuth Distance (km) Brightness Sun altitude
Exits shadow 01:53:19 38° 280° (W) 957 4.2 -20.8°
Maximum altitude 01:53:27 38° 285° (WNW) 955 4.3 -20.8°
Drops below altitude 10° 01:57:35 10° 354° (N) 1,996 6.7 -20.3°
Sets 01:59:57 0° 3° (N) 2,908 7.8 -20.0°
